Home > Weather > Fayetteville > Past weeks

Flag for USA Weather for the Past 2 Weeks in Fayetteville, North Carolina, USA

Now
76 °F

Thunderstorms. Passing clouds.


Feels Like: 77 °F
Forecast: 66 / 85 °F
Wind: 5 mph from Southwest

Location: Fayetteville Regional Airport

Current Time: Apr 28, 2016 at 10:22:21 PM

Latest Report: Apr 28, 2016 at 9:53 PM


Visibility: 10 mi

Pressure: 29.85 "Hg

Humidity: 72%

Dew Point: 66 °F

Location of FayettevilleLocation

Historic Weather in Fayetteville — Graph

°F

Fayetteville Temperature Yesterday

Maximum temperature yesterday: 88 °F (at 3:53 PM)
Minimum temperature yesterday: 63 °F (at 4:53 AM)
Average temperature yesterday: 76 °F

High & Low Weather Summary for the Past Weeks

 TemperatureHumidityPressure
High90 °F (Apr 19, 2:53 PM)94% (Apr 22, 6:53 AM)30.41 "Hg (Apr 22, 6:53 AM)
Low41 °F (Apr 14, 6:53 AM)14% (Apr 19, 3:53 PM)29.77 "Hg (Apr 27, 5:53 PM)
Average66 °F56%30.08 "Hg
* Reported Apr 13 8:53 PM — Apr 28 8:53 PM, Fayetteville, Weather by CustomWeather, © 2016

Note: Actual official high and low records may vary slightly from our data, if they occured in-between our weather recording intervals... More about our weather records

Advertising

Fayetteville Weather History for the Previous 24 Hours

Scroll right to see more
 ConditionsComfort  
Time TempWeatherWind HumidityBarometerVisibility
8:53 PM
Thu, Apr 28
79 °FPassing clouds.12 mph65%29.84 "Hg10 mi
7:53 PM81 °FBroken clouds.10 mph58%29.83 "Hg10 mi
6:53 PM83 °FPassing clouds.14 mph55%29.80 "Hg10 mi
5:53 PM86 °FPassing clouds.18 mph48%29.80 "Hg10 mi
4:53 PM87 °FPartly sunny.16 mph46%29.80 "Hg8 mi
3:53 PM87 °FPassing clouds.10 mph46%29.82 "Hg10 mi
2:53 PM86 °FSunny.14 mph43%29.85 "Hg10 mi
1:53 PM84 °FSunny.15 mph46%29.87 "Hg10 mi
12:53 PM82 °FPassing clouds.13 mph53%29.90 "Hg10 mi
11:53 AM78 °FScattered clouds.10 mph62%29.91 "Hg10 mi
10:53 AM76 °FPassing clouds.10 mph67%29.91 "Hg10 mi
9:53 AM74 °FPassing clouds.8 mph71%29.91 "Hg10 mi
8:53 AM71 °FSunny.10 mph76%29.90 "Hg10 mi
7:53 AM68 °FSunny.6 mph82%29.90 "Hg10 mi
6:53 AM65 °FPassing clouds.No wind85%29.89 "Hg10 mi
5:53 AM66 °FPassing clouds.No wind81%29.88 "Hg10 mi
4:53 AM67 °FPassing clouds.7 mph76%29.86 "Hg10 mi
3:53 AM68 °FClear.9 mph73%29.85 "Hg10 mi
2:53 AM69 °FPassing clouds.9 mph68%29.85 "Hg10 mi
1:53 AM70 °FClear.9 mph68%29.85 "Hg10 mi
12:53 AM72 °FClear.9 mph66%29.85 "Hg10 mi
11:53 PM
Wed, Apr 27
74 °FClear.10 mph67%29.85 "Hg10 mi
10:53 PM75 °FClear.9 mph66%29.84 "Hg10 mi
Weather by CustomWeather, © 2016

See weather overviewHow to use our weather pages